When you browse on this site, cookies collect data to enhance your experience and personalize the content and advertising you see.
Visit our Privacy Policy to learn more. By continuing to use the site, you agree to this use of cookies and data.
  • en France
  • Liste des pays
  • À 7 jours
  • Température de l'eau
  • Carte météo
  • Widgets météo
  • user-avatar
    Se connecter

    Météo par heure à Hasselt

    Ce jour, 26 Janvier, Dimanche

    Heure Température Précipitation Vent Pression Humidité
    00:00 +2°C° 0 mm 2 m/s 760 mmHg 86%
    01:00 +2°C° 0 mm 2 m/s 760 mmHg 86%
    02:00 +2°C° 0 mm 2 m/s 760 mmHg 86%
    03:00 +2°C° 0 mm 2 m/s 759 mmHg 87%
    04:00 +1°C° 0 mm 3 m/s 759 mmHg 87%
    05:00 +1°C° 0 mm 3 m/s 759 mmHg 88%
    06:00 +1°C° 0 mm 3 m/s 759 mmHg 88%
    07:00 +2°C° 0 mm 3 m/s 759 mmHg 87%
    08:00 +2°C° 0 mm 3 m/s 759 mmHg 86%
    09:00 +3°C° 0 mm 4 m/s 759 mmHg 84%
    10:00 +4°C° 0 mm 4 m/s 759 mmHg 81%
    11:00 +6°C° 0 mm 5 m/s 758 mmHg 77%
    12:00 +7°C° 0 mm 5 m/s 758 mmHg 74%
    13:00 +7°C° 0 mm 5 m/s 757 mmHg 76%
    14:00 +7°C° 0 mm 4 m/s 757 mmHg 78%
    15:00 +7°C° 0 mm 4 m/s 757 mmHg 80%
    16:00 +6°C° 0 mm 4 m/s 757 mmHg 83%
    17:00 +5°C° 0 mm 5 m/s 757 mmHg 87%
    18:00 +5°C° 0 mm 5 m/s 757 mmHg 90%
    19:00 +5°C° 0 mm 5 m/s 757 mmHg 90%
    20:00 +5°C° 0 mm 5 m/s 756 mmHg 89%
    21:00 +5°C° 0 mm 5 m/s 756 mmHg 89%
    22:00 +5°C° 0 mm 5 m/s 756 mmHg 88%
    23:00 +4°C° 0 mm 6 m/s 756 mmHg 87%

    Demain, 27 Janvier, Lundi

    Heure Température Précipitation Vent Pression Humidité
    00:00 +5°C° 0 mm 6 m/s 755 mmHg 86%
    01:00 +5°C° 0.1 mm 7 m/s 755 mmHg 86%
    02:00 +5°C° 0.1 mm 7 m/s 754 mmHg 86%
    03:00 +6°C° 0.1 mm 7 m/s 754 mmHg 85%
    04:00 +6°C° 0.4 mm 7 m/s 753 mmHg 86%
    05:00 +6°C° 0.4 mm 7 m/s 753 mmHg 86%
    06:00 +7°C° 0.4 mm 6 m/s 752 mmHg 87%
    07:00 +7°C° 0.2 mm 6 m/s 752 mmHg 87%
    08:00 +7°C° 0.2 mm 6 m/s 752 mmHg 88%
    09:00 +7°C° 0.2 mm 5 m/s 752 mmHg 89%
    10:00 +7°C° 0.9 mm 6 m/s 752 mmHg 89%
    11:00 +7°C° 0.9 mm 6 m/s 751 mmHg 89%
    12:00 +7°C° 0.9 mm 6 m/s 750 mmHg 89%
    13:00 +7°C° 0.6 mm 6 m/s 750 mmHg 87%
    14:00 +7°C° 0.6 mm 6 m/s 749 mmHg 85%
    15:00 +8°C° 0.6 mm 6 m/s 749 mmHg 83%
    16:00 +7°C° 0.1 mm 6 m/s 749 mmHg 84%
    17:00 +6°C° 0.1 mm 5 m/s 748 mmHg 85%
    18:00 +6°C° 0.1 mm 5 m/s 748 mmHg 86%
    19:00 +6°C° 0.1 mm 5 m/s 747 mmHg 87%
    20:00 +6°C° 0.1 mm 5 m/s 746 mmHg 88%
    21:00 +6°C° 0.1 mm 4 m/s 746 mmHg 89%
    22:00 +6°C° 1.1 mm 4 m/s 745 mmHg 90%
    23:00 +6°C° 1.1 mm 4 m/s 743 mmHg 91%

    Après-demain, 28 Janvier, Mardi

    Heure Température Précipitation Vent Pression Humidité
    00:00 +6°C° 1.1 mm 4 m/s 742 mmHg 93%
    01:00 +6°C° 0.9 mm 5 m/s 742 mmHg 91%
    02:00 +5°C° 0.9 mm 5 m/s 742 mmHg 89%
    03:00 +4°C° 0.9 mm 6 m/s 741 mmHg 87%
    04:00 +4°C° 0.1 mm 6 m/s 741 mmHg 86%
    05:00 +3°C° 0.1 mm 5 m/s 741 mmHg 86%
    06:00 +3°C° 0.1 mm 5 m/s 740 mmHg 86%
    07:00 +3°C° 0.6 mm 6 m/s 741 mmHg 88%
    08:00 +2°C° 0.6 mm 7 m/s 741 mmHg 89%
    09:00 +2°C° 0.6 mm 7 m/s 741 mmHg 91%
    10:00 +1°C° 0.4 mm 8 m/s 742 mmHg 82%
    11:00 +2°C° 0.4 mm 9 m/s 743 mmHg 72%
    12:00 +2°C° 0.4 mm 9 m/s 744 mmHg 63%
    13:00 +2°C° 0 mm 8 m/s 744 mmHg 63%
    14:00 +3°C° 0 mm 7 m/s 745 mmHg 64%
    15:00 +3°C° 0 mm 6 m/s 745 mmHg 65%
    16:00 +3°C° 0.3 mm 6 m/s 745 mmHg 72%
    17:00 +2°C° 0.3 mm 6 m/s 745 mmHg 79%
    18:00 +2°C° 0.3 mm 6 m/s 745 mmHg 86%
    19:00 +2°C° 0.2 mm 6 m/s 746 mmHg 83%
    20:00 +2°C° 0.2 mm 6 m/s 746 mmHg 81%
    21:00 +2°C° 0.2 mm 6 m/s 746 mmHg 78%
    22:00 +1°C° 0.1 mm 6 m/s 746 mmHg 78%
    23:00 +1°C° 0.1 mm 6 m/s 746 mmHg 78%

    29 Janvier, Mercredi

    Heure Température Précipitation Vent Pression Humidité
    00:00 +1°C° 0.1 mm 6 m/s 746 mmHg 77%
    01:00 -1°C° 0 mm 6 m/s 747 mmHg 77%
    02:00 -1°C° 0 mm 6 m/s 747 mmHg 77%
    03:00 -1°C° 0 mm 6 m/s 748 mmHg 77%
    04:00 -1°C° 0 mm 6 m/s 748 mmHg 78%
    05:00 -1°C° 0 mm 6 m/s 749 mmHg 79%
    06:00 -2°C° 0 mm 6 m/s 749 mmHg 80%
    07:00 -1°C° 0 mm 6 m/s 750 mmHg 79%
    08:00 -1°C° 0 mm 6 m/s 751 mmHg 78%
    09:00 +1°C° 0 mm 6 m/s 752 mmHg 77%
    10:00 +1°C° 0 mm 6 m/s 752 mmHg 74%
    11:00 +2°C° 0 mm 6 m/s 752 mmHg 72%
    12:00 +2°C° 0 mm 6 m/s 753 mmHg 70%
    13:00 +3°C° 0 mm 6 m/s 753 mmHg 69%
    14:00 +3°C° 0 mm 6 m/s 753 mmHg 69%
    15:00 +3°C° 0 mm 6 m/s 754 mmHg 69%
    16:00 +2°C° 0 mm 5 m/s 754 mmHg 73%
    17:00 +1°C° 0 mm 4 m/s 755 mmHg 77%
    18:00 0°C° 0 mm 4 m/s 755 mmHg 81%
    19:00 0°C° 0 mm 4 m/s 756 mmHg 82%
    20:00 0°C° 0 mm 4 m/s 756 mmHg 83%
    21:00 0°C° 0 mm 4 m/s 757 mmHg 84%
    22:00 0°C° 0 mm 4 m/s 757 mmHg 85%
    23:00 -1°C° 0 mm 4 m/s 757 mmHg 86%

    30 Janvier, Jeudi

    Heure Température Précipitation Vent Pression Humidité
    00:00 -1°C° 0 mm 4 m/s 758 mmHg 87%
    01:00 -1°C° 0 mm 4 m/s 758 mmHg 88%
    02:00 -1°C° 0 mm 4 m/s 758 mmHg 89%
    03:00 -1°C° 0 mm 4 m/s 758 mmHg 90%
    04:00 -1°C° 0 mm 4 m/s 758 mmHg 90%
    05:00 0°C° 0 mm 3 m/s 758 mmHg 91%
    06:00 -1°C° 0 mm 3 m/s 758 mmHg 92%
    07:00 0°C° 0 mm 3 m/s 759 mmHg 90%
    08:00 +1°C° 0 mm 3 m/s 759 mmHg 88%
    09:00 +2°C° 0 mm 3 m/s 759 mmHg 85%
    10:00 +3°C° 0 mm 3 m/s 759 mmHg 82%
    11:00 +4°C° 0 mm 4 m/s 759 mmHg 79%
    12:00 +5°C° 0 mm 4 m/s 759 mmHg 76%
    13:00 +5°C° 0 mm 4 m/s 758 mmHg 77%
    14:00 +5°C° 0 mm 3 m/s 757 mmHg 77%
    15:00 +5°C° 0 mm 3 m/s 757 mmHg 78%
    16:00 +4°C° 0 mm 3 m/s 757 mmHg 81%
    17:00 +3°C° 0 mm 3 m/s 757 mmHg 84%
    18:00 +2°C° 0 mm 3 m/s 757 mmHg 87%
    19:00 +2°C° 0 mm 3 m/s 757 mmHg 87%
    20:00 +2°C° 0 mm 3 m/s 756 mmHg 86%
    21:00 +2°C° 0 mm 3 m/s 756 mmHg 86%
    22:00 +2°C° 0 mm 3 m/s 756 mmHg 84%
    23:00 +1°C° 0 mm 4 m/s 756 mmHg 83%

    31 Janvier, Vendredi

    Heure Température Précipitation Vent Pression Humidité
    00:00 +1°C° 0 mm 4 m/s 755 mmHg 82%
    01:00 +3°C° 0 mm 4 m/s 755 mmHg 83%
    02:00 +4°C° 0 mm 4 m/s 755 mmHg 84%
    03:00 +4°C° 0 mm 4 m/s 755 mmHg 84%
    04:00 +4°C° 0 mm 4 m/s 754 mmHg 86%
    05:00 +5°C° 0 mm 4 m/s 754 mmHg 88%
    06:00 +5°C° 0 mm 4 m/s 754 mmHg 90%
    07:00 +5°C° 0 mm 4 m/s 754 mmHg 91%
    08:00 +6°C° 0 mm 4 m/s 755 mmHg 91%
    09:00 +7°C° 0 mm 5 m/s 755 mmHg 92%
    10:00 +7°C° 0 mm 5 m/s 755 mmHg 91%
    11:00 +8°C° 0 mm 5 m/s 755 mmHg 90%
    12:00 +9°C° 0 mm 5 m/s 755 mmHg 89%
    13:00 +10°C° 0 mm 5 m/s 755 mmHg 89%
    14:00 +10°C° 0 mm 5 m/s 754 mmHg 88%
    15:00 +10°C° 0 mm 5 m/s 754 mmHg 87%
    16:00 +10°C° 0 mm 5 m/s 755 mmHg 89%
    17:00 +10°C° 0 mm 5 m/s 755 mmHg 90%
    18:00 +10°C° 0 mm 5 m/s 755 mmHg 92%
    19:00 +9°C° 0.2 mm 5 m/s 755 mmHg 91%
    20:00 +9°C° 0.2 mm 5 m/s 755 mmHg 91%
    21:00 +9°C° 0.2 mm 5 m/s 755 mmHg 91%
    22:00 +9°C° 0.5 mm 5 m/s 755 mmHg 91%
    23:00 +10°C° 0.5 mm 5 m/s 755 mmHg 92%
    Voir plus